When you browse on this site, cookies collect data to enhance your experience and personalize the content and advertising you see.
Visit our Privacy Policy to learn more. By continuing to use the site, you agree to this use of cookies and data.
  • In Austria
  • List of Countries
  • For 7 days
  • Water Temperature
  • Satellite Maps
  • Weather Map
  • News
  • Weather Widgets
  • user-avatar
    Login

    Hourly Weather Kronin

    Today, 16 February, Saturday

    Time Temperature Precipitation Wind Pressure Humidity
    00:00 +1°C° 0 mm 2 mps 761 mmHg 93%
    01:00 +1°C° 0 mm 2 mps 761 mmHg 91%
    02:00 +1°C° 0 mm 2 mps 760 mmHg 90%
    03:00 +1°C° 0 mm 2 mps 760 mmHg 89%
    04:00 0°C° 0 mm 3 mps 760 mmHg 88%
    05:00 0°C° 0 mm 3 mps 760 mmHg 85%
    06:00 0°C° 0 mm 3 mps 759 mmHg 83%
    07:00 0°C° 0 mm 3 mps 759 mmHg 80%
    08:00 0°C° 0 mm 4 mps 759 mmHg 74%
    09:00 +1°C° 0 mm 4 mps 759 mmHg 68%
    10:00 +4°C° 0 mm 4 mps 758 mmHg 62%
    11:00 +5°C° 0 mm 5 mps 758 mmHg 60%
    12:00 +6°C° 0 mm 5 mps 758 mmHg 58%
    13:00 +7°C° 0 mm 5 mps 758 mmHg 56%
    14:00 +7°C° 0 mm 5 mps 757 mmHg 57%
    15:00 +7°C° 0 mm 5 mps 757 mmHg 59%
    16:00 +6°C° 0 mm 5 mps 756 mmHg 61%
    17:00 +6°C° 0 mm 5 mps 756 mmHg 64%
    18:00 +5°C° 0 mm 5 mps 756 mmHg 67%
    19:00 +3°C° 0 mm 5 mps 755 mmHg 71%
    20:00 +3°C° 0 mm 5 mps 755 mmHg 73%
    21:00 +3°C° 0 mm 4 mps 755 mmHg 75%
    22:00 +3°C° 0 mm 4 mps 755 mmHg 77%
    23:00 +3°C° 0 mm 4 mps 755 mmHg 80%

    Tomorrow, 17 February, Sunday

    Time Temperature Precipitation Wind Pressure Humidity
    00:00 +1°C° 0 mm 4 mps 755 mmHg 82%
    01:00 +1°C° 0 mm 4 mps 755 mmHg 84%
    02:00 +1°C° 0 mm 4 mps 755 mmHg 86%
    03:00 +1°C° 0 mm 4 mps 755 mmHg 87%
    04:00 0°C° 0 mm 4 mps 754 mmHg 89%
    05:00 +1°C° 0 mm 3 mps 755 mmHg 91%
    06:00 +1°C° 0 mm 3 mps 755 mmHg 92%
    07:00 +1°C° 0 mm 3 mps 755 mmHg 94%
    08:00 +1°C° 0 mm 4 mps 755 mmHg 94%
    09:00 +3°C° 0 mm 4 mps 755 mmHg 94%
    10:00 +3°C° 0 mm 4 mps 756 mmHg 95%
    11:00 +3°C° 0 mm 4 mps 756 mmHg 93%
    12:00 +4°C° 0 mm 4 mps 756 mmHg 91%
    13:00 +4°C° 0 mm 4 mps 756 mmHg 89%
    14:00 +4°C° 0 mm 3 mps 756 mmHg 88%
    15:00 +4°C° 0 mm 3 mps 756 mmHg 88%
    16:00 +4°C° 0 mm 3 mps 756 mmHg 87%
    17:00 +4°C° 0 mm 2 mps 757 mmHg 89%
    18:00 +4°C° 0 mm 2 mps 757 mmHg 90%
    19:00 +4°C° 0 mm 2 mps 757 mmHg 91%
    20:00 +3°C° 0 mm 2 mps 757 mmHg 92%
    21:00 +3°C° 0 mm 1 mps 757 mmHg 93%
    22:00 +3°C° 0 mm 1 mps 757 mmHg 94%
    23:00 +3°C° 0 mm 1 mps 757 mmHg 94%

    Day after tomorrow, 18 February, Monday

    Time Temperature Precipitation Wind Pressure Humidity
    00:00 +2°C° 0 mm 1 mps 757 mmHg 94%
    01:00 +2°C° 0 mm 1 mps 757 mmHg 94%
    02:00 +2°C° 0 mm 1 mps 757 mmHg 94%
    03:00 +1°C° 0 mm 2 mps 757 mmHg 94%
    04:00 +1°C° 0 mm 2 mps 757 mmHg 94%
    05:00 +1°C° 0 mm 2 mps 757 mmHg 94%
    06:00 +1°C° 0 mm 2 mps 757 mmHg 93%
    07:00 +1°C° 0 mm 2 mps 757 mmHg 93%
    08:00 +1°C° 0 mm 3 mps 757 mmHg 87%
    09:00 +2°C° 0 mm 3 mps 757 mmHg 81%
    10:00 +4°C° 0 mm 4 mps 757 mmHg 76%
    11:00 +5°C° 0 mm 4 mps 757 mmHg 73%
    12:00 +6°C° 0 mm 5 mps 756 mmHg 70%
    13:00 +6°C° 0 mm 5 mps 756 mmHg 66%
    14:00 +6°C° 0 mm 5 mps 756 mmHg 69%
    15:00 +6°C° 0 mm 5 mps 755 mmHg 71%
    16:00 +5°C° 0 mm 4 mps 755 mmHg 74%
    17:00 +5°C° 0 mm 4 mps 755 mmHg 77%
    18:00 +3°C° 0 mm 5 mps 755 mmHg 81%
    19:00 +2°C° 0 mm 5 mps 754 mmHg 85%
    20:00 +2°C° 0 mm 5 mps 754 mmHg 85%
    21:00 +2°C° 0 mm 5 mps 754 mmHg 86%
    22:00 +2°C° 0 mm 5 mps 754 mmHg 87%
    23:00 +1°C° 0 mm 4 mps 753 mmHg 87%

    19 February, Tuesday

    Time Temperature Precipitation Wind Pressure Humidity
    00:00 +1°C° 0 mm 4 mps 753 mmHg 86%
    01:00 +1°C° 0 mm 4 mps 752 mmHg 86%
    02:00 0°C° 0 mm 4 mps 752 mmHg 85%
    03:00 0°C° 0 mm 4 mps 751 mmHg 85%
    04:00 0°C° 0 mm 4 mps 751 mmHg 84%
    05:00 0°C° 0 mm 5 mps 750 mmHg 84%
    06:00 0°C° 0 mm 5 mps 750 mmHg 84%
    07:00 0°C° 0 mm 5 mps 750 mmHg 84%
    08:00 +1°C° 0 mm 5 mps 749 mmHg 80%
    09:00 +2°C° 0 mm 6 mps 749 mmHg 76%
    10:00 +3°C° 0 mm 6 mps 749 mmHg 72%
    11:00 +4°C° 0 mm 6 mps 749 mmHg 70%
    12:00 +5°C° 0 mm 7 mps 748 mmHg 68%
    13:00 +6°C° 0 mm 7 mps 748 mmHg 66%
    14:00 +7°C° 0.2 mm 6 mps 748 mmHg 70%
    15:00 +5°C° 0.2 mm 6 mps 748 mmHg 75%
    16:00 +6°C° 0.2 mm 5 mps 748 mmHg 79%
    17:00 +5°C° 0.1 mm 5 mps 748 mmHg 82%
    18:00 +3°C° 0.1 mm 5 mps 748 mmHg 85%
    19:00 +4°C° 0.1 mm 4 mps 749 mmHg 88%
    20:00 +3°C° 0 mm 4 mps 749 mmHg 88%
    21:00 +2°C° 0 mm 5 mps 749 mmHg 88%
    22:00 +2°C° 0 mm 5 mps 749 mmHg 89%
    23:00 +2°C° 0 mm 5 mps 749 mmHg 88%

    20 February, Wednesday

    Time Temperature Precipitation Wind Pressure Humidity
    00:00 +2°C° 0 mm 6 mps 749 mmHg 87%
    01:00 +2°C° 0 mm 6 mps 749 mmHg 87%
    02:00 +2°C° 0 mm 6 mps 748 mmHg 86%
    03:00 +1°C° 0 mm 6 mps 748 mmHg 85%
    04:00 +1°C° 0 mm 6 mps 748 mmHg 85%
    05:00 +1°C° 0 mm 6 mps 748 mmHg 83%
    06:00 +1°C° 0 mm 6 mps 748 mmHg 82%
    07:00 0°C° 0 mm 7 mps 748 mmHg 80%
    08:00 0°C° 0 mm 7 mps 748 mmHg 79%
    09:00 +2°C° 0 mm 7 mps 749 mmHg 78%
    10:00 +1°C° 0 mm 8 mps 749 mmHg 77%
    11:00 +1°C° 0.1 mm 8 mps 749 mmHg 76%
    12:00 +1°C° 0.1 mm 8 mps 749 mmHg 76%
    13:00 +2°C° 0.1 mm 8 mps 750 mmHg 75%
    14:00 +3°C° 0.1 mm 7 mps 750 mmHg 74%
    15:00 +3°C° 0.1 mm 6 mps 751 mmHg 73%
    16:00 +3°C° 0.1 mm 6 mps 751 mmHg 71%
    17:00 +2°C° 0 mm 5 mps 751 mmHg 77%
    18:00 +1°C° 0 mm 4 mps 752 mmHg 82%
    19:00 +1°C° 0 mm 3 mps 752 mmHg 87%
    20:00 +1°C° 0 mm 3 mps 752 mmHg 89%
    21:00 0°C° 0 mm 3 mps 752 mmHg 92%
    22:00 0°C° 0 mm 3 mps 753 mmHg 94%
    23:00 +1°C° 0 mm 2 mps 753 mmHg 95%

    21 February, Thursday

    Time Temperature Precipitation Wind Pressure Humidity
    00:00 +1°C° 0 mm 2 mps 753 mmHg 95%
    01:00 +1°C° 0 mm 2 mps 753 mmHg 96%
    02:00 +2°C° 0.1 mm 1 mps 753 mmHg 96%
    03:00 +3°C° 0.1 mm 1 mps 753 mmHg 97%
    04:00 +3°C° 0.1 mm 1 mps 753 mmHg 97%
    05:00 +2°C° 0.1 mm 2 mps 753 mmHg 96%
    06:00 +2°C° 0.1 mm 2 mps 753 mmHg 94%
    07:00 0°C° 0.1 mm 3 mps 753 mmHg 93%
    08:00 -1°C° 0.3 mm 4 mps 754 mmHg 89%
    09:00 -1°C° 0.3 mm 4 mps 754 mmHg 86%
    10:00 -1°C° 0.3 mm 5 mps 754 mmHg 83%
    11:00 -2°C° 0.4 mm 5 mps 754 mmHg 83%
    12:00 -2°C° 0.4 mm 5 mps 754 mmHg 83%
    13:00 -2°C° 0.4 mm 5 mps 754 mmHg 83%
    14:00 -2°C° 0.3 mm 4 mps 755 mmHg 83%
    15:00 -2°C° 0.3 mm 4 mps 755 mmHg 82%
    16:00 -2°C° 0.3 mm 4 mps 755 mmHg 81%
    17:00 -2°C° 0.1 mm 4 mps 756 mmHg 77%
    18:00 -3°C° 0.1 mm 4 mps 756 mmHg 72%
    19:00 -3°C° 0.1 mm 4 mps 757 mmHg 67%
    20:00 -3°C° 0 mm 4 mps 758 mmHg 65%
    21:00 -4°C° 0 mm 4 mps 758 mmHg 63%
    22:00 -5°C° 0 mm 4 mps 759 mmHg 61%
    23:00 -5°C° 0 mm 4 mps 760 mmHg 62%
    Show more